Regional Weather Roundup
Issued by NWS State College, PA

Home | Current Version | Previous Version | Graphics & Text | Print | Product List | Glossary Off
Versions: 1 2 3 4 5 6 7 8 9 10 11 12 13 14 15 16 17 18 19 20 21 22 23 24 25 26 27 28 29 30 31 32 33 34 35 36 37 38 39 40 41 42 43 44 45 46 47 48 49 50

935
ASUS41 KCTP 230610
RWRCTP

REGIONAL WEATHER ROUNDUP
NATIONAL WEATHER SERVICE STATE COLLEGE PA
200 AM EDT FRI JUN 23 2017

Note: "fair" indicates few or no clouds below 12,000 feet with no
significant weather and/or obstructions to visibility.

* = STATION THAT DOES NOT REPORT PRECIPITATION /E.G. RAIN...SNOW...ETC/
    THUNDER OR FOG.

PAZ002>004-007>009-013>016-020>023-029>032-230700-
WESTERN PENNSYLVANIA

CITY           SKY/WX    TMP DP  RH WIND       PRES   REMARKS
ERIE           CLOUDY    76  68  76 S15       29.79F
MEADVILLE      PTCLDY    72  69  90 S7        29.86F
FRANKLIN*      PTCLDY    70  64  83 SW10G18   29.88F
NEW CASTLE     FAIR      73  68  84 VRB7      29.87F
BEAVER COUNTY  NOT AVBL
BUTLER*        CLOUDY    73  66  78 SW9       29.89F
PITTSBURGH INT CLOUDY    74  69  85 SW9       29.89F
PITTSBURGH     CLOUDY    73  66  78 SW14      29.91F
INDIANA*       CLEAR     68  68 100 SW6       29.94F
LATROBE        CLOUDY    73  68  83 S10       29.93F
WASHINGTON CO* CLOUDY    72  66  83 S5        29.94F
$$

PAZ004>006-010>012-017>019-024>028-033>037-041-042-045-046-049>053-230700-
CENTRAL PENNSYLVANIA

CITY           SKY/WX    TMP DP  RH WIND       PRES   REMARKS
BRADFORD       PTCLDY    68  67  96 VRB6      29.90F
DUBOIS         PTCLDY    70  65  84 SW12      29.90F
CLEARFIELD     PTCLDY    65  65 100 S3        29.92F FOG
JOHNSTOWN      MOCLDY    70  65  84 SW9       29.96F
ALTOONA        CLOUDY    68  68 100 SW6       29.94F FOG
STATE COLLEGE  PTCLDY    67  65  95 SW6       29.91F
WILLIAMSPORT   MOCLDY    71  68  90 CALM      29.86F
SELINSGROVE    PTCLDY    70  70 100 CALM      29.89F FOG
FT INDIANTOWN  CLOUDY    70  70 100 CALM      29.90F FOG
CAPITAL CITY   CLOUDY    72  68  87 CALM      29.89F
HARRISBURG     MOCLDY    72  70  93 CALM      29.89F
YORK           PTCLDY    69  69 100 CALM      29.90F
$$

PAZ038>040-043-044-047-048-054-055-060>062-067>071-230700-
EASTERN PENNSYLVANIA

CITY           SKY/WX    TMP DP  RH WIND       PRES   REMARKS
SCRANTON       CLOUDY    74  68  81 SW3       29.89F
MOUNT POCONO   CLOUDY    68  67  96 W3        29.95F
ALLENTOWN      CLOUDY    75  69  81 SW7       29.89F
QUAKERTOWN*    PTCLDY    72  72 100 CALM      29.91F
READING        MOCLDY    73  73 100 SW3       29.89F
LANCASTER      PTCLDY    74  72  93 CALM      29.90F
COATESVILLE    MOCLDY    75  72  88 CALM      29.93F
POTTSTOWN      PTCLDY    75  70  84 CALM      29.91F
BLUE BELL      MOCLDY    72  70  94 CALM      29.91F
DOYLESTOWN     MOCLDY    73  70  90 S3        29.89F
WILLOW GROVE   NOT AVBL
NORTH PHILA    PTCLDY    79  71  76 SW5       29.90F
PHILADELPHIA   MOCLDY    79  71  76 SW7       29.90F
$$




USA.gov is the U.S. government's official web portal to all federal, state and local government web resources and services.